Showing default

COSMOS 2581, 62902

Orbit data source: Space-Track

COSMOS 2581, 62902 is a payload satellite owned by MO RF (CIS) in LEO that was launched on Wed, 05 Feb 2025 UTC via a SOYUZ-2-1V launch vehicle from the Plesetsk Missile And Space Complex (PKMTR). Payload-class satellites include a variety of spacecraft equipped with specific instruments for various scientific and technological missions. These include communications satellites like Starlink; space stations such as the ISS; scientific satellites like the Hubble; Earth observation satellites from companies like Planet Labs, Umbra, and HawkEye 360; GPS; miniature CubeSats for education and research; and military/defense satellites.

Loading next visibility...
Identifier
62902, 2025-026A
Orbit
LEO
Country
Flag of CISCIS
Related business
Manufacturer
VNIIEM
Mission
Operational Defense Imaging
Bus & Motor
EMKA, Unknown motor
Mass
~500 kg wet, 500 kg dry
Launch date (UTC)
2025-02-05 (7 months ago)
Launch vehicle
SOYUZ-2-1V
Launch site
Plesetsk Missile And Space Complex (PKMTR)
Object type
Payload
Rocket body
Debris
Shape & HBR
Cyl + 2 Pan, 1.5 m
Radar Cross Section
3.727 m², Large (>1 m²)

Expand to show TLE details & history
Last TLE update: 5 days ago

TLE from 5 days ago
0 COSMOS 2581
1 62902U 25026A   25254.69973683  .00001613  00000-0  14961-3 0  9998
2 62902  81.9995 358.4183 0009219 256.0759 103.9435 14.93862257 32624
Epoch: 2025-09-11T16:47Z
TLE epoch observation values (Epoch: 2025-09-11T16:47:37.262Z)
Latitude
-0.00001°
Longitude
115.55499°
Altitude
590.497 km
Speed
7.564 km/s
True Right ascension
23h 53m 40s
True Declination
0° 00' 00"
Sunlit
Object was in full shadow at epoch
Visualization orbit readout
Latitude
Unknown
Longitude
Unknown
Altitude
Unknown
Speed
Unknown
Apparent Right ascension
Unknown
Apparent Declination
Unknown
Sunlit
N/A
Visualization observer readout
Local Sidereal Time
23:32:56
Azimuth
Unknown
Elevation
Unknown
Doppler factor
Unknown
Orbital elements
Apogee altitude
589.351 km
Perigee altitude
576.516 km
Semi-major axis
6,961.07 km
Eccentricity
0.00092
Inclination
81.9995°
RAAN
358.4183°
Arg. of periapsis
256.0759°
True anomaly
104.046°
Mean anomaly
103.9435°
Eccentric anomaly
103.99475°
Mean motion
3.73705 °/min
Orbital period
96.33 mins
BSTAR
0.00014961
Loading maneuver chart data...
Computing Atmospheric mass density...
Loading historical data...
Loading historical data...
Loading historical data...
Loading historical data...
Loading historical data...
Loading historical data...
Loading historical data...

Documentation

Showing up to 5 results
|